Volver al catálogo

STARLINK-37809

ActivoComunicacionesVLEO
NORAD 100288·PAYLOAD·🇺🇸 United States

Lanzado Aug 11, 2026 desde Cape Canaveral Space Force Station

Loading…

Próximos Pases (próximas 24 horas)

TLE

EnvejeciendoSource: Space-Track

Época: Sep 12, 2026, 06:37 UTC

1 A0288U 26183S   26255.27581844  .00177036  00000-0  11474-2 0  9990
2 A0288  53.1570 297.7987 0004523 332.6033  27.4748 15.74981865  5016

Sigue STARLINK-37809 en tiempo real con AllMySat

Download on the App Store